This is the latest recevied weather packets stored in our database for station/object ZL1CTS-13. If no packets are shown the sender has not sent any weather packets the latest 1 day(s).
| Time | Temp. | Humidity | Pressure | Rain* | Wind** | Luminosity | Snow |
|---|---|---|---|---|---|---|---|
| 1778042404 | 23.89° C | 69% | 1017.7 hPa | 0 mm | 0 m/s | - | - |
| 1778041804 | 23.89° C | 70% | 1017.9 hPa | 0 mm | 0.45 m/s, 0° | - | - |
| 1778041204 | 22.78° C | 70% | 1017.8 hPa | 0 mm | 0.45 m/s, 0° | - | - |
| 1778040604 | 22.78° C | 70% | 1017.8 hPa | 0 mm | 0.89 m/s, 282° | - | - |
| 1778040004 | 23.89° C | 72% | 1017.7 hPa | 0 mm | 0.45 m/s, 315° | - | - |
| 1778039404 | 22.78° C | 70% | 1017.9 hPa | 0 mm | 0.89 m/s, 334° | - | - |
| 1778038804 | 23.89° C | 70% | 1017.9 hPa | 0 mm | 0.89 m/s, 328° | - | - |
| 1778038204 | 23.33° C | 70% | 1017.9 hPa | 0 mm | 0.89 m/s, 315° | - | - |
| 1778037604 | 22.78° C | 69% | 1017.9 hPa | 0 mm | 0.89 m/s, 308° | - | - |
| 1778037004 | 23.89° C | 72% | 1017.9 hPa | 0 mm | 1.34 m/s, 0° | - | - |
| 1778036404 | 22.78° C | 70% | 1017.9 hPa | 0 mm | 1.79 m/s, 339° | - | - |
| 1778035804 | 22.22° C | 69% | 1017.8 hPa | 0 mm | 1.34 m/s, 344° | - | - |
| 1778035203 | 22.22° C | 70% | 1017.7 hPa | 0 mm | 0.89 m/s, 18° | - | - |
| 1778034604 | 22.22° C | 69% | 1018 hPa | 0 mm | 1.34 m/s, 300° | - | - |
| 1778034004 | 22.22° C | 69% | 1017.9 hPa | 0 mm | 1.34 m/s, 18° | - | - |
| 1778033404 | 23.89° C | 70% | 1017.9 hPa | 0 mm | 1.34 m/s, 11° | - | - |
| 1778032803 | 23.33° C | 71% | 1017.9 hPa | 0 mm | 0.89 m/s, 0° | - | - |
| 1778032203 | 22.22° C | 70% | 1018 hPa | 0 mm | 1.34 m/s, 285° | - | - |
| 1778031606 | 22.22° C | 71% | 1018.1 hPa | 0 mm | 1.34 m/s, 271° | - | - |
| 1778031004 | 22.22° C | 70% | 1018.1 hPa | 0 mm | 1.34 m/s, 306° | - | - |
| 1778030404 | 22.22° C | 70% | 1018.2 hPa | 0 mm | 1.79 m/s, 332° | - | - |
| 1778029804 | 23.89° C | 69% | 1018.3 hPa | 0 mm | 1.34 m/s, 31° | - | - |
| 1778029204 | 23.33° C | 71% | 1018.4 hPa | 0 mm | 0.89 m/s, 40° | - | - |
| 1778028603 | 21.11° C | 71% | 1018.4 hPa | 0 mm | 2.24 m/s, 323° | - | - |
| 1778028004 | 22.22° C | 68% | 1018.5 hPa | 0 mm | 1.79 m/s, 0° | - | - |
* Rain latest hour (hover to see other rain measurements)
** Current wind speed in m/s (hover to see current wind gust speed)